Погода в Бишкеке

Погода в Бишкеке : погода сейчас, прогноз погоды и архив. Всё, что Вы хотите узнать о погоде в Бишкеке!

Поиск расширенной информации на нашем сайте:

Другие новости

Новости СМИ2

Главная страница сайта

Новости сайта

03.07.2017

Напоминаем, что на нашем специализированном сайте Метеоцентр.Азия вы можете получить высокодетализированные автоматические прогнозы погоды по пунктам России, СНГ и мира в авиационном формате (включающие направление и скорость ветра, видимость, явления погоды, количество и форму облачности, нижнюю и верхнюю границу облачности).

Рекомендуем: Закажи скорее ремонт двухкомнатной квартиры у нас и получи смету бесплатно.

Погода в Бишкеке - сегодня

Время (UTC), дата Ветер
(°,м/с) 
Видим.   Явления Облачность Т
(°С)
Тd
(°С)
f(%) Тe
(°С)
Pmin
(гПа)
dP
(гПа)
Po
(мм)
O2
(г/м3)
Тmin Tmax R s Состояние
почвы
21 19.11.17 тихо ()   н/о    ясно 
-4.1 -5.7 89 -4  1038.1  -1.3  708  290           
00 20.11.17 тихо ()   н/о    ясно 
-5.7 -7.5 87 -6  1037.6  -1  707  292           
03 20.11.17 130 (ЮВ) 20000 м    ясно 
-5.9 -8.1 84 -6  1037.2  -0.5  707  292           
06 20.11.17 310 (СЗ) 10 км  дым  ясно 
-0.1 -1.8 88 +1  1035.2  0.2  707  285           
09 20.11.17 270 (З) 10 км  дым  ясно 
+4 -0.6 72 +5  1032.5  -1.1  706  280           
12 20.11.17 360 (С) 20000 м    ясно 
+1.8 -2.6 73 +3  1033.3  706  283           
15 20.11.17 180 (Ю) н/о    ясно 
-1.4 -4.4 80 -1  1034.5  706  286    +5.6       
18 20.11.17 180 (Ю) н/о    ясно 
-3 -6.8 75 -3  1034  -1  706  288    +5.6       
21 20.11.17 тихо ()   н/о    ясно 
-4.2 -8.4 72 -4  1033.3  -1.1  705  289           
00 21.11.17 тихо ()   н/о    ясно 
-4.8 -9.7 69 -5  1032.9  -0.5  704  290           
03 21.11.17 180 (Ю) 20000 м    3/0 верхняя 
[Ci fib]
-3.7 -8.5 69 -3  1032.7  0.2  704  289          замёрзшая 
06 21.11.17 100 (В) 20000 м    6/0 верхняя 
[Ci fib]
+5.2 -3.4 54 +6  1028.9  -0.6  704  279           
09 21.11.17 280 (З) 20000 м    4/0 верхняя 
[Ci fib]
+9.6 -0.9 48 +11  1026.3  -1  703  274           
12 21.11.17 220 (ЮЗ) 20000 м    ясно 
+5.7 -2.3 56 +7  1027.8  0.2  703  278           
15 21.11.17 180 (Ю) н/о    ясно 
+0.4 -5 67 +1  1029.5  -0.1  703  283    +9.7       
18 21.11.17 180 (Ю) н/о    ясно 
-0.7 -4.9 73 1028.8  -1.1  703  284    +9.7       
21 21.11.17 тихо ()   н/о    ясно 
-3.2 -6.7 77 -3  1028  -1.5  701  287           
00 22.11.17 180 (Ю) н/о    ясно 
-3.9 -6.8 80 -3  1027.5  -0.7  701  287           
03 22.11.17 140 (ЮВ) 20000 м    ясно 
-1.9 -7.2 67 -1  1025.8  -0.9  700  285           
06 22.11.17 090 (В) 20000 м    ясно 
+13.5 -6.4 24 +14  1020.2  -0.4  700  269           
09 22.11.17 090 (В) 20000 м    ясно 
+17.6 -12.2 12 +18  1017.4  -1.5  699  265           
12 22.11.17 270 (З) 20000 м    ясно 
+8.7 -2.5 45 +10  1019.6  -0.3  699  273           
15 22.11.17 180 (Ю) н/о    ясно 
+3.6 -6.1 49 +4  1020.7  -0.7  698  278    +18.4       
18 22.11.17 090 (В) н/о    ясно 
+0.8 -6.9 56 +1  1020.3  -1.2  697  281    +18.4       
21 22.11.17 тихо ()   н/о    ясно 
-1 -7.6 61 -1  1020.4  -0.6  697  282           
Время (UTC), дата Ветер
(°,м/с) 
Видим.   Явления Облачность Т
(°С)
Тd
(°С)
f(%) Тe
(°С)
Pmin
(гПа)
dP
(гПа)
Po
(мм)
O2
(г/м3)
Тmin Tmax R s Состояние
почвы

Для получения пояснительной информации подведите курсор к названию столбца.

ПОГОДА в Бишкеке - архив

Всё, что Вы хотите узнать о погоде в Бишкеке - удобно и подробно!

Выберите нужную дату (начиная с 1 января 2015* года) и нажмите кнопку "Найти".
Будут отображены архивные сводки погоды по пункту Бишкек, начиная с указанной даты.


Отображать данные в формате CSV (для использования в таблицах Excel)


Внимание! Наш архив погоды предназначен исключительно для личного некоммерческого использования в познавательных целях. Если Вам необходимы официальные справки о состоянии погоды (для производственных, юридических, коммерческих и т.п. целей), обращайтесь в органы Росгидромета.

*Примечание: данная дата относится к архиву по метеостанциям СССР (Россия, СНГ, Балтия).
Архив по метеостанциям Зарубежной Европы и Азии (кроме Китая) хранится 10 дней, по другим регионам земного шара (Китай, Африка, Америка, Австралия, Океания) - 1 день.

Бишкек - район местоположения метеостанции


Название, широта, долгота, высота метеостанции:
Бишкек (город) 42.9°ш. 74.5°д. 760 м над ур. моря [Кыргызстан]

Дополнительная информация

В oтличие oт бoльшинства пoгoдных сайтoв мы публикуем пoдрoбную метеoинфoрмацию в детальнoм прoфессиoнальнoм фoрмате.

Характеристики температуры и влажнoсти вoздуха измеряются на высoте 2 м в тени вдали oт зданий и деревьев.
Скoрoсть ветра измеряется на высoте 10 м (на урoвне рoста челoвека скoрoсть ветра ниже в 1.5-2 раза). Если метеoстанция нахoдится в гoрoде или в лесу, тo скoрoсть ветра занижена на 2-4 м/с пo сравнению с oткрытым местoм. Скoрoсть ветра над акватoриями крупных рек и oзёр, а также на вершинах хoлмoв на 2-5 м/с выше, чем в oбычных услoвиях.
Атмoсфернoе давление в разных тoчках местнoсти мoжет значительнo oтличаться oт давления на метеoстанции, в зависимoсти oт услoвий рельефа (при пoдъёме на 10 м давление пoнижается примернo на 1 мм рт.ст.).